Regional Weather Roundup
Issued by NWS

Home | Current Version | Previous Version | Graphics & Text | Print | Product List | Glossary On
Versions: 1 2 3 4 5 6 7 8 9 10 11 12 13 14 15 16 17 18 19 20 21 22 23 24 25 26 27 28 29 30 31 32 33 34 35 36 37 38 39 40 41 42 43 44 45 46 47 48 49 50
000
ASUS44 KMEG 220710
RWRTN
TENNESSEE HOURLY STATE WEATHER ROUNDUP
NATIONAL WEATHER SERVICE MEMPHIS TN
200 AM CDT MON SEP 22 2014

TNZ002-004-019-021-049-052-054-088>092-220800-
WEST TENNESSEE

CITY           SKY/WX    TMP DP  RH WIND       PRES   REMARKS
MEMPHIS INTL   CLEAR     68  50  52 NE13      30.10S
NWS MEMPHIS      N/A     66 N/A N/A MISG        N/A
JACKSON        CLEAR     59  51  75 N6        30.10S
DYERSBURG      CLEAR     63  45  51 N9G16     30.13S
UNION CITY     CLEAR     55  52  88 N3        30.12S
PARIS          CLEAR     55  48  76 N3        30.12S
HUNTINGDON     CLEAR     58  49  72 N3        30.12R
LEXINGTON      CLEAR     57  50  77 N6        30.09S
SAVANNAH       CLEAR     59  54  82 N3        30.08S
$$

TNZ008-025-027-028-033-062-065-066-220800-
NORTH MIDDLE TENNESSEE

CITY           SKY/WX    TMP DP  RH WIND       PRES   REMARKS
NASHVILLE      CLEAR     63  50  62 N7        30.09S
DICKSON        CLEAR     57  48  72 N5        30.10S
PORTLAND       CLEAR     54  50  87 N3        30.09R
CLARKSVILLE    CLEAR     53  48  83 N5        30.11R
LEBANON        CLEAR     55  50  83 CALM      30.07S
SMYRNA         CLEAR     61  51  69 N7        30.09S
MURFREESBORO   CLEAR     60  50  69 N6        30.07S
COOKEVILLE     CLEAR     50  50 100 CALM      30.07S
GALLATIN       CLEAR     59  53  80 CALM      30.10R
CROSSVILLE     CLEAR     57  49  74 N6        30.09S
$$

TNZ061-075-076-078-094-096-097-220800-
SOUTH MIDDLE TENNESSEE

CITY           SKY/WX    TMP DP  RH WIND       PRES   REMARKS
LEWISBURG      CLEAR     60  51  72 N5        30.07S
FAYETTEVILLE   CLEAR     61  48  63 N8        30.06S
TULLAHOMA      CLEAR     55  48  76 N3        30.07F
WINCHESTER     CLEAR     57  55  94 CALM      30.07R
MCMINNVILLE    CLEAR     57  55  94 N6        30.07S
COLUMBIA       CLEAR     61  54  77 N5        30.07S
SHELBYVILLE    CLEAR     59  52  77 N6        30.08S
$$

TNZ017-018-042-046-047-220800-
NORTHEAST TENNESSEE

CITY           SKY/WX    TMP DP  RH WIND       PRES   REMARKS
TRI CITIES     PTCLDY    54  50  86 N3        30.02S
ELIZABETHTON   SUNNY     52  50  93 CALM      30.03S
$$

TNZ012-013-036-069-073-074-220800-
CENTRAL EAST TENNESSEE

CITY           SKY/WX    TMP DP  RH WIND       PRES   REMARKS
KNOXVILLE      CLEAR     61  53  75 N3        30.03R
OAK RIDGE      CLEAR     57  53  86 CALM      30.06S
GATLINBURG     SUNNY     57  54  88 CALM      30.03S
MORRISTOWN     SUNNY     61  52  72 NW3       30.05S
$$

TNZ083-085-099-220800-
SOUTHEAST TENNESSEE

CITY           SKY/WX    TMP DP  RH WIND       PRES   REMARKS
CHATTANOOGA    CLEAR     67  51  56 N8        30.03S
$$

SKY/WX REPORTED AS FAIR MEANS FEW OR NO CLOUDS BELOW
12 THOUSAND FEET.



USA.gov is the U.S. government's official web portal to all federal, state and local government web resources and services.